Location: *
(46.3500°N, 10.9000°E)
Time: 21:08:31
(UTC+00:00)

Explorer 7 - Pass Details

Date: 20 April 2021
Orbit: 484 x 677 km, 50.3° (Epoch: 05 May)

Event Time Altitude Azimuth Distance (km) Brightness Sun altitude
Rises 18:54:11 0° 223° (SW) 2,608 10.5 -7.8°
Reaches altitude 10° 18:56:23 10° 216° (SW) 1,751 9.5 -8.1°
Maximum altitude 19:00:10 43° 145° (SE) 774 7.2 -8.7°
Drops below altitude 10° 19:04:10 10° 74° (ENE) 1,866 9.1 -9.3°
Enters shadow 19:06:16 - 68° (ENE) 2,677 9.9 -9.6°
Sets 19:06:35 0° 68° (ENE) 2,804 - -9.6°
